When you browse on this site, cookies collect data to enhance your experience and personalize the content and advertising you see.
Visit our Privacy Policy to learn more. By continuing to use the site, you agree to this use of cookies and data.
  • In France
  • List of Countries
  • For 7 days
  • Water Temperature
  • Weather Map
  • Weather Widgets
  • user-avatar
    Login

    Hourly Weather Bük

    Today, 2 June, Tuesday

    Time Temperature Precipitation Wind Pressure Humidity
    00:00 +13°C° 0 mm 4 mps 745 mmHg 80%
    01:00 +13°C° 0 mm 4 mps 745 mmHg 83%
    02:00 +12°C° 0 mm 4 mps 745 mmHg 84%
    03:00 +12°C° 0 mm 4 mps 744 mmHg 84%
    04:00 +11°C° 0 mm 4 mps 744 mmHg 85%
    05:00 +13°C° 0 mm 5 mps 744 mmHg 79%
    06:00 +14°C° 0 mm 6 mps 744 mmHg 72%
    07:00 +16°C° 0 mm 6 mps 744 mmHg 66%
    08:00 +17°C° 0.1 mm 7 mps 744 mmHg 62%
    09:00 +18°C° 0.1 mm 7 mps 743 mmHg 59%
    10:00 +20°C° 0.1 mm 8 mps 743 mmHg 55%
    11:00 +18°C° 0.3 mm 7 mps 743 mmHg 59%
    12:00 +18°C° 0.3 mm 7 mps 742 mmHg 63%
    13:00 +17°C° 0.3 mm 6 mps 742 mmHg 67%
    14:00 +19°C° 0.3 mm 6 mps 742 mmHg 65%
    15:00 +19°C° 0.3 mm 6 mps 742 mmHg 63%
    16:00 +20°C° 0.3 mm 7 mps 741 mmHg 60%
    17:00 +19°C° 0.1 mm 6 mps 741 mmHg 64%
    18:00 +16°C° 0.1 mm 5 mps 741 mmHg 68%
    19:00 +15°C° 0.1 mm 4 mps 741 mmHg 72%
    20:00 +14°C° 0 mm 3 mps 741 mmHg 76%
    21:00 +13°C° 0 mm 3 mps 741 mmHg 80%
    22:00 +12°C° 0 mm 3 mps 741 mmHg 84%
    23:00 +13°C° 0 mm 2 mps 741 mmHg 84%

    Tomorrow, 3 June, Wednesday

    Time Temperature Precipitation Wind Pressure Humidity
    00:00 +13°C° 0 mm 2 mps 740 mmHg 83%
    01:00 +13°C° 0 mm 2 mps 740 mmHg 83%
    02:00 +13°C° 0.1 mm 2 mps 740 mmHg 85%
    03:00 +12°C° 0.1 mm 2 mps 739 mmHg 86%
    04:00 +12°C° 0.1 mm 1 mps 739 mmHg 87%
    05:00 +14°C° 0 mm 2 mps 739 mmHg 82%
    06:00 +15°C° 0 mm 2 mps 738 mmHg 77%
    07:00 +17°C° 0 mm 2 mps 738 mmHg 72%
    08:00 +18°C° 0.3 mm 2 mps 738 mmHg 69%
    09:00 +19°C° 0.3 mm 3 mps 738 mmHg 66%
    10:00 +21°C° 0.3 mm 3 mps 738 mmHg 63%
    11:00 +21°C° 0.8 mm 3 mps 737 mmHg 62%
    12:00 +21°C° 0.8 mm 3 mps 737 mmHg 61%
    13:00 +22°C° 0.8 mm 3 mps 737 mmHg 60%
    14:00 +23°C° 0.3 mm 2 mps 736 mmHg 60%
    15:00 +23°C° 0.3 mm 2 mps 736 mmHg 60%
    16:00 +23°C° 0.3 mm 2 mps 736 mmHg 59%
    17:00 +20°C° 0.2 mm 2 mps 736 mmHg 66%
    18:00 +19°C° 0.2 mm 2 mps 735 mmHg 73%
    19:00 +19°C° 0.2 mm 1 mps 735 mmHg 79%
    20:00 +16°C° 0 mm 2 mps 735 mmHg 82%
    21:00 +15°C° 0 mm 2 mps 735 mmHg 84%
    22:00 +14°C° 0 mm 2 mps 736 mmHg 87%
    23:00 +14°C° 0 mm 2 mps 735 mmHg 88%

    Day after tomorrow, 4 June, Thursday

    Time Temperature Precipitation Wind Pressure Humidity
    00:00 +13°C° 0 mm 2 mps 735 mmHg 90%
    01:00 +13°C° 0 mm 2 mps 734 mmHg 91%
    02:00 +12°C° 0 mm 2 mps 734 mmHg 93%
    03:00 +12°C° 0 mm 2 mps 734 mmHg 95%
    04:00 +12°C° 0 mm 2 mps 733 mmHg 96%
    05:00 +13°C° 0 mm 2 mps 733 mmHg 93%
    06:00 +14°C° 0 mm 2 mps 733 mmHg 89%
    07:00 +16°C° 0 mm 2 mps 733 mmHg 86%
    08:00 +18°C° 0 mm 3 mps 733 mmHg 78%
    09:00 +20°C° 0 mm 3 mps 733 mmHg 71%
    10:00 +22°C° 0 mm 3 mps 733 mmHg 64%
    11:00 +23°C° 0.1 mm 4 mps 733 mmHg 62%
    12:00 +25°C° 0.1 mm 4 mps 732 mmHg 61%
    13:00 +26°C° 0.1 mm 5 mps 732 mmHg 59%
    14:00 +26°C° 0.4 mm 6 mps 732 mmHg 58%
    15:00 +24°C° 0.4 mm 7 mps 731 mmHg 58%
    16:00 +24°C° 0.4 mm 8 mps 731 mmHg 57%
    17:00 +23°C° 0 mm 8 mps 731 mmHg 59%
    18:00 +21°C° 0 mm 8 mps 730 mmHg 61%
    19:00 +20°C° 0 mm 8 mps 730 mmHg 63%
    20:00 +19°C° 0 mm 9 mps 730 mmHg 61%
    21:00 +19°C° 0 mm 9 mps 730 mmHg 59%
    22:00 +19°C° 0 mm 10 mps 730 mmHg 57%
    23:00 +18°C° 0 mm 8 mps 730 mmHg 60%

    5 June, Friday

    Time Temperature Precipitation Wind Pressure Humidity
    00:00 +18°C° 0 mm 7 mps 730 mmHg 64%
    01:00 +17°C° 0 mm 5 mps 730 mmHg 67%
    02:00 +17°C° 0.1 mm 4 mps 730 mmHg 72%
    03:00 +16°C° 0.1 mm 3 mps 730 mmHg 77%
    04:00 +16°C° 0.1 mm 2 mps 730 mmHg 82%
    05:00 +16°C° 0.4 mm 3 mps 730 mmHg 84%
    06:00 +15°C° 0.4 mm 4 mps 730 mmHg 85%
    07:00 +17°C° 0.4 mm 4 mps 730 mmHg 86%
    08:00 +15°C° 2.7 mm 4 mps 731 mmHg 89%
    09:00 +14°C° 2.7 mm 4 mps 731 mmHg 92%
    10:00 +14°C° 2.7 mm 3 mps 732 mmHg 95%
    11:00 +14°C° 2.8 mm 3 mps 732 mmHg 95%
    12:00 +13°C° 2.8 mm 3 mps 732 mmHg 95%
    13:00 +13°C° 2.8 mm 3 mps 733 mmHg 95%
    14:00 +14°C° 0.2 mm 3 mps 733 mmHg 93%
    15:00 +14°C° 0.2 mm 3 mps 734 mmHg 91%
    16:00 +14°C° 0.2 mm 4 mps 734 mmHg 88%
    17:00 +14°C° 0 mm 3 mps 734 mmHg 87%
    18:00 +15°C° 0 mm 2 mps 735 mmHg 86%
    19:00 +15°C° 0 mm 1 mps 735 mmHg 85%
    20:00 +14°C° 0 mm 1 mps 736 mmHg 86%
    21:00 +13°C° 0 mm 1 mps 737 mmHg 87%
    22:00 +12°C° 0 mm 1 mps 737 mmHg 89%
    23:00 +12°C° 0 mm 1 mps 738 mmHg 89%

    6 June, Saturday

    Time Temperature Precipitation Wind Pressure Humidity
    00:00 +12°C° 0 mm 1 mps 738 mmHg 89%
    01:00 +11°C° 0 mm 1 mps 738 mmHg 90%
    02:00 +11°C° 0 mm 1 mps 739 mmHg 90%
    03:00 +10°C° 0 mm 2 mps 739 mmHg 90%
    04:00 +10°C° 0 mm 2 mps 739 mmHg 90%
    05:00 +13°C° 0 mm 2 mps 740 mmHg 86%
    06:00 +14°C° 0 mm 2 mps 740 mmHg 82%
    07:00 +16°C° 0 mm 3 mps 740 mmHg 78%
    08:00 +18°C° 0 mm 3 mps 740 mmHg 71%
    09:00 +20°C° 0 mm 4 mps 741 mmHg 63%
    10:00 +21°C° 0 mm 4 mps 741 mmHg 55%
    11:00 +22°C° 0 mm 5 mps 741 mmHg 54%
    12:00 +23°C° 0 mm 5 mps 740 mmHg 52%
    13:00 +23°C° 0 mm 6 mps 740 mmHg 51%
    14:00 +23°C° 0 mm 6 mps 740 mmHg 52%
    15:00 +23°C° 0 mm 6 mps 739 mmHg 53%
    16:00 +23°C° 0 mm 6 mps 739 mmHg 54%
    17:00 +22°C° 0 mm 5 mps 739 mmHg 61%
    18:00 +21°C° 0 mm 4 mps 739 mmHg 67%
    19:00 +20°C° 0 mm 4 mps 739 mmHg 74%
    20:00 +19°C° 0 mm 4 mps 739 mmHg 75%
    21:00 +18°C° 0 mm 4 mps 740 mmHg 77%
    22:00 +17°C° 0 mm 3 mps 740 mmHg 78%
    23:00 +16°C° 0 mm 3 mps 740 mmHg 80%

    7 June, Sunday

    Time Temperature Precipitation Wind Pressure Humidity
    00:00 +16°C° 0 mm 3 mps 740 mmHg 82%
    01:00 +16°C° 0 mm 3 mps 740 mmHg 84%
    02:00 +14°C° 0 mm 3 mps 739 mmHg 86%
    03:00 +15°C° 0 mm 2 mps 739 mmHg 89%
    04:00 +14°C° 0 mm 2 mps 739 mmHg 92%
    05:00 +16°C° 0 mm 2 mps 740 mmHg 88%
    06:00 +17°C° 0 mm 2 mps 740 mmHg 84%
    07:00 +18°C° 0 mm 2 mps 740 mmHg 80%
    08:00 +19°C° 0 mm 3 mps 740 mmHg 75%
    09:00 +21°C° 0 mm 3 mps 740 mmHg 71%
    10:00 +22°C° 0 mm 4 mps 740 mmHg 66%
    11:00 +23°C° 0.2 mm 4 mps 739 mmHg 64%
    12:00 +25°C° 0.2 mm 4 mps 739 mmHg 62%
    13:00 +26°C° 0.2 mm 5 mps 738 mmHg 60%
    14:00 +26°C° 0.5 mm 5 mps 738 mmHg 63%
    15:00 +26°C° 0.5 mm 5 mps 738 mmHg 65%
    16:00 +26°C° 0.5 mm 4 mps 737 mmHg 68%
    17:00 +23°C° 0.1 mm 5 mps 737 mmHg 70%
    18:00 +22°C° 0.1 mm 5 mps 737 mmHg 73%
    19:00 +21°C° 0.1 mm 5 mps 737 mmHg 75%
    20:00 +20°C° 0 mm 5 mps 737 mmHg 75%
    21:00 +19°C° 0 mm 5 mps 737 mmHg 74%
    22:00 +17°C° 0 mm 5 mps 738 mmHg 74%
    23:00 +17°C° 0 mm 4 mps 738 mmHg 74%
    Show more